TimeMDT,TemperatureF,Dew PointF,Humidity,Sea Level PressureIn,VisibilityMPH,Wind Direction,Wind SpeedMPH,Gust SpeedMPH,PrecipitationIn,Events,Conditions,WindDirDegrees,DateUTC
12:53 AM,66.0,57.0,73,29.92,10.0,SE,6.9,-,N/A,,Clear,130,2013-07-08 06:53:00
1:53 AM,66.0,57.9,75,29.90,10.0,South,11.5,-,N/A,,Clear,170,2013-07-08 07:53:00
2:53 AM,66.9,59.0,76,29.90,10.0,South,10.4,-,N/A,,Mostly Cloudy,180,2013-07-08 08:53:00
3:53 AM,66.0,57.9,75,29.90,10.0,South,8.1,-,N/A,,Clear,180,2013-07-08 09:53:00
4:53 AM,66.0,57.0,73,29.90,10.0,South,10.4,-,N/A,,Clear,180,2013-07-08 10:53:00
5:53 AM,66.9,54.0,63,29.88,10.0,South,8.1,-,N/A,,Clear,180,2013-07-08 11:53:00
6:53 AM,69.1,55.0,61,29.88,10.0,SSE,9.2,-,N/A,,Clear,160,2013-07-08 12:53:00
7:53 AM,78.1,54.0,43,29.89,10.0,SSW,11.5,26.5,N/A,,Clear,200,2013-07-08 13:53:00
8:53 AM,81.0,52.0,36,29.90,10.0,WSW,16.1,-,N/A,,Clear,250,2013-07-08 14:53:00
9:53 AM,86.0,50.0,29,29.88,10.0,WSW,11.5,26.5,N/A,,Clear,250,2013-07-08 15:53:00
10:53 AM,86.0,54.0,33,29.89,10.0,WNW,15.0,24.2,N/A,,Clear,300,2013-07-08 16:53:00
11:53 AM,89.1,52.0,28,29.88,10.0,WNW,13.8,21.9,N/A,,Clear,290,2013-07-08 17:53:00
12:53 PM,91.9,48.9,23,29.88,10.0,West,13.8,23.0,N/A,,Clear,270,2013-07-08 18:53:00
1:53 PM,91.9,46.0,21,29.86,10.0,West,12.7,19.6,N/A,,Clear,280,2013-07-08 19:53:00
2:53 PM,93.9,46.9,20,29.84,10.0,West,17.3,21.9,N/A,,Clear,280,2013-07-08 20:53:00
3:53 PM,95.0,46.9,19,29.83,10.0,NW,11.5,20.7,N/A,,Clear,310,2013-07-08 21:53:00
4:53 PM,93.0,46.9,20,29.83,10.0,NNW,10.4,19.6,N/A,,Clear,340,2013-07-08 22:53:00
5:53 PM,91.9,41.0,17,29.83,10.0,Calm,Calm,-,N/A,,Clear,0,2013-07-08 23:53:00
6:53 PM,91.9,46.0,21,29.82,10.0,Variable,5.8,-,N/A,,Clear,0,2013-07-09 00:53:00
7:53 PM,84.9,54.0,34,29.83,10.0,North,8.1,-,N/A,,Clear,10,2013-07-09 01:53:00
8:53 PM,80.1,59.0,48,29.84,10.0,ENE,8.1,-,N/A,,Clear,60,2013-07-09 02:53:00
9:53 PM,75.0,60.1,60,29.87,10.0,East,5.8,-,N/A,,Clear,80,2013-07-09 03:53:00
10:53 PM,75.9,61.0,60,29.87,10.0,SE,5.8,-,N/A,,Clear,140,2013-07-09 04:53:00
11:53 PM,77.0,60.1,56,29.87,10.0,South,8.1,-,N/A,,Clear,170,2013-07-09 05:53:00